Weather History for Kansas City, MO

Change the Weather History Date:

Thursday, February 28, 2013

  Actual Average Record
Temperature  
Mean Temperature 32 °F -  
Max Temperature 35 °F 44 °F 75 °F (2006)
Min Temperature 28 °F 27 °F 15 °F (2001)
Degree Days  
Heating Degree Days 34    
Moisture  
Dew Point 24 °F    
Average Humidity 72    
Maximum Humidity 80    
Minimum Humidity 66    
Precipitation  
Precipitation 0.00 in - - ()
Sea Level Pressure  
Sea Level Pressure 30.16 in    
Wind  
Wind Speed 9 mph (NW)    
Max Wind Speed 14 mph    
Max Gust Speed 23 mph    
Visibility 8 miles    
Events      
Averages and records for this station are not official NWS values.
T = Trace of Precipitation, MM = Missing Value Source: NWS Daily Summary

Daily Weather History Graph

Daily Weather History Graph

Search for Another Location

Airport:

Trip Planner

Search our weather history database for the weather conditions in past years. The results will help you decide how hot, cold, wet, or windy it might be!

Date:

Astronomy

Feb. 28, 2013 Rise Set
Actual Time 6:52 AM CST 6:10 PM CST
Civil Twilight 6:25 AM CST 6:37 PM CST
Nautical Twilight 5:54 AM CST 7:08 PM CST
Astronomical Twilight 5:23 AM CST 7:39 PM CST
Moon 9:36 PM CST 8:03 AM CST
Length of Visible Light 12h 11m
Length of Day
11h 18m
Waning Gibbous, 90% of the Moon is Illuminated
Feb 28
Waning Gibbous
Mar 4
Last Quarter
Mar 11
New
Mar 19
First Quarter
Mar 27
Full

Hourly Weather History & Observations

Time (CST) Temp. Windchill Dew Point Humidity Pressure Visibility Wind Dir Wind Speed Gust Speed Precip Events Conditions
12:07 AM 35.6 °F 28.6 °F 26.6 °F 70% 30.04 in 10.0 mi NW 9.2 mph 18.4 mph N/A   Overcast
12:54 AM 35.1 °F 27.9 °F 26.1 °F 70% 30.06 in 8.0 mi NW 9.2 mph 23.0 mph N/A   Mostly Cloudy
1:54 AM 34.0 °F 24.6 °F 25.0 °F 70% 30.06 in 8.0 mi NNW 13.8 mph 19.6 mph N/A   Mostly Cloudy
2:54 AM 33.1 °F 24.4 °F 25.0 °F 72% 30.07 in 7.0 mi NW 11.5 mph 18.4 mph N/A   Overcast
3:32 AM 32.0 °F 23.0 °F 24.8 °F 75% 30.05 in 7.0 mi NNW 11.5 mph 18.4 mph N/A   Scattered Clouds
3:54 AM 32.0 °F 23.0 °F 23.0 °F 69% 30.08 in 7.0 mi NNW 11.5 mph 19.6 mph N/A   Partly Cloudy
4:47 AM 30.2 °F 22.6 °F 23.0 °F 75% 30.08 in 8.0 mi North 8.1 mph - N/A   Mostly Cloudy
4:54 AM 30.9 °F 22.8 °F 23.0 °F 72% 30.10 in 8.0 mi NNW 9.2 mph - N/A   Overcast
5:54 AM 28.9 °F 19.8 °F 21.9 °F 75% 30.13 in 8.0 mi North 10.4 mph 18.4 mph N/A   Overcast
6:54 AM 28.9 °F 19.2 °F 21.9 °F 75% 30.14 in 8.0 mi NNW 11.5 mph 19.6 mph N/A   Overcast
7:54 AM 30.2 °F 21.9 °F 21.2 °F 69% 30.15 in 7.0 mi NNW 9.2 mph - N/A   Overcast
8:54 AM 30.0 °F 21.7 °F 21.9 °F 72% 30.18 in 7.0 mi NNW 9.2 mph - N/A   Overcast
9:54 AM 30.9 °F 22.8 °F 23.0 °F 72% 30.19 in 8.0 mi NNW 9.2 mph - N/A   Overcast
10:54 AM 30.9 °F 23.5 °F 23.0 °F 72% 30.20 in 7.0 mi NNW 8.1 mph 16.1 mph N/A   Overcast
11:54 AM 32.0 °F 24.8 °F 23.0 °F 69% 30.21 in 8.0 mi NNW 8.1 mph - N/A   Overcast
12:54 PM 33.1 °F 25.5 °F 24.1 °F 70% 30.20 in 8.0 mi North 9.2 mph - N/A   Overcast
1:54 PM 32.0 °F 23.6 °F 24.1 °F 73% 30.20 in 8.0 mi NNW 10.4 mph - N/A   Overcast
2:52 PM 33.8 °F 25.3 °F 24.8 °F 70% 30.17 in 10.0 mi NW 11.5 mph - N/A   Overcast
2:54 PM 33.1 °F 25.5 °F 24.1 °F 70% 30.19 in 10.0 mi NW 9.2 mph - N/A   Overcast
3:14 PM 33.8 °F 27.0 °F 24.8 °F 70% 30.17 in 10.0 mi WNW 8.1 mph - N/A   Overcast
3:54 PM 33.1 °F 26.1 °F 23.0 °F 66% 30.19 in 9.0 mi NNW 8.1 mph - N/A   Overcast
4:54 PM 33.1 °F 26.9 °F 24.1 °F 70% 30.19 in 7.0 mi NW 6.9 mph - N/A   Overcast
5:54 PM 32.0 °F 24.8 °F 24.1 °F 73% 30.20 in 7.0 mi NW 8.1 mph - N/A   Overcast
6:08 PM 32.0 °F 26.4 °F 24.8 °F 75% 30.19 in 7.0 mi WNW 5.8 mph - N/A   Overcast
6:54 PM 32.0 °F 25.6 °F 24.1 °F 73% 30.21 in 8.0 mi WNW 6.9 mph - N/A   Overcast
7:54 PM 32.0 °F 26.4 °F 24.1 °F 73% 30.22 in 9.0 mi WNW 5.8 mph - N/A   Overcast
8:54 PM 32.0 °F 27.5 °F 24.1 °F 73% 30.22 in 9.0 mi WNW 4.6 mph - N/A   Overcast
9:54 PM 32.0 °F 26.4 °F 24.1 °F 73% 30.22 in 9.0 mi NW 5.8 mph - N/A   Overcast
10:54 PM 30.9 °F 25.2 °F 24.1 °F 76% 30.21 in 9.0 mi WNW 5.8 mph - N/A   Overcast
11:14 PM 32.0 °F 26.4 °F 24.8 °F 75% 30.19 in 9.0 mi NW 5.8 mph - N/A   Overcast
11:25 PM 30.2 °F 25.4 °F 24.8 °F 80% 30.19 in 9.0 mi NW 4.6 mph - N/A   Overcast
11:54 PM 30.9 °F 26.2 °F 24.1 °F 76% 30.21 in 10.0 mi NW 4.6 mph - N/A   Overcast